ASTERISC

导读

ASTERISC是日本于2021年11月9日,通过“埃普西隆5”号运载火箭在鹿儿岛内之浦宇宙空间观测所发射升空的立方卫星。它搭载了可折叠大面积宇宙尘埃传感器与辅助小传感器,通过自旋稳定姿态控制技术,低成本开展宇宙尘埃、微小空间碎片探测,预期可捕获数十至上百个颗粒样本,推进空间环境研究。

基本信息
目录编号:
49395
目录名称:
ASTERISC
国际标识:
2021-102A
轨道中心:
EARTH
卫星名称:
ASTERISC
卫星全名:
--
卫星状态:
已陨落 最后检测时间 2025-01-25
发射日期:
2021-11-09 UTC
国别 :
日本 (JP)
星等 :
--
轨道信息
数据来源 国际轨道数据
星历时间: 2025-01-21T08:38:23+0800
轨道信息已过期539天
半长轴: 6526.338km
偏心率: 0.001295
轨道倾角: 97.354°
近地点辐角 292.802°
升交点赤经 82.840°
平近点角 67.192°
近地点: 139.751km
远地点: 156.655km
周期: 87.451分钟
每日圈数: 16.466394
详细信息
使用方式:
暂无